STARLINK-5644, 55369

Orbit data source: Space-Track

STARLINK-5644, 55369 is a payload satellite owned by SpaceX/Seattle (US) in LEO that was launched on Thu, 26 Jan 2023 UTC via an FALCON 9 launch vehicle from the Air Force Eastern Test Range (AFETR). Payload-class satellites include a variety of spacecraft equipped with specific instruments for various scientific and technological missions. These include communications satellites like Starlink; space stations such as the ISS; scientific satellites like the Hubble; Earth observation satellites from companies like Planet Labs, Umbra, and HawkEye 360; GPS; miniature CubeSats for education and research; and military/defense satellites.

Loading next visibility...
Identifier
55369, 2023-013AQ
Orbit
LEO
Country
Flag of USUS
Related business
Manufacturer
SpaceX/Seattle
Mission
Operational Commercial Communications
Bus & Motor
STARLINK, Unknown motor
Mass
305 kg wet, ~290 kg dry
Launch date (UTC)
2023-01-26 (3 years ago)
Launch vehicle
FALCON 9
Launch site
Air Force Eastern Test Range (AFETR)
Object type
Payload
Rocket body
Debris
Shape & HBR
Box + 1 Pan, 10.1 m
Radar Cross Section
13.562 m², Large (>1 m²)

Expand to show TLE details & history
Last TLE update: 19 hours ago

TLE from 19 hours ago
0 STARLINK-5644
1 55369U 23013AQ  25348.88769775  .00000997  00000-0  88902-4 0  9992
2 55369  43.0049  54.0557 0000921 232.1223 127.9536 15.02532989158802
Epoch: 2025-12-14T21:18Z
TLE epoch observation values (Epoch: 2025-12-14T21:18:17.085Z)
Latitude
-0.00003°
Longitude
10.69032°
Altitude
559.26 km
Speed
7.583 km/s
True Right ascension
03h 36m 13s
True Declination
0° 00' 00"
Sunlit
Object was in full shadow at epoch
Visualization orbit readout
Latitude
Unknown
Longitude
Unknown
Altitude
Unknown
Speed
Unknown
Apparent Right ascension
Unknown
Apparent Declination
Unknown
Sunlit
N/A
Visualization observer readout
Local Sidereal Time
15:07:28
Azimuth
Unknown
Elevation
Unknown
Doppler factor
Unknown
Orbital elements
Apogee altitude
561.651 km
Perigee altitude
560.373 km
Semi-major axis
6,939.149 km
Eccentricity
0.00009
Inclination
43.0049°
RAAN
54.0557°
Arg. of periapsis
232.1223°
True anomaly
127.96192°
Mean anomaly
127.9536°
Eccentric anomaly
127.95776°
Mean motion
3.75477 °/min
Orbital period
95.88 mins
BSTAR
0.000088902
Loading maneuver chart data...
Computing Atmospheric mass density...
Loading historical data...
Loading historical data...
Loading historical data...
Loading historical data...
Loading historical data...
Loading historical data...
Loading historical data...

Documentation

Showing up to 5 results
|